Regional Weather Roundup
Issued by NWS

Home | Current Version | Previous Version | Graphics & Text | Print | Product List | Glossary On
Versions: 1 2 3 4 5 6 7 8 9 10 11 12 13 14 15 16 17 18 19 20 21 22 23 24 25 26 27 28 29 30 31 32 33 34 35 36 37 38 39 40 41 42 43 44 45 46 47 48 49 50
000
ASUS43 KLSX 221407
RWRMO

WEATHER SUMMARY FOR MISSOURI
NATIONAL WEATHER SERVICE SPRINGFIELD MO
800 AM CST SUN JAN 22 2017

NOTE: "FAIR" INDICATES FEW OR NO CLOUDS BELOW 12,000 FEET WITH NO
       SIGNIFICANT WEATHER AND/OR OBSTRUCTIONS TO VISIBILITY.
       CURRENT SKY AND/OR WEATHER CONDITIONS ARE NOT AVAILABLE FOR
       CHILLICOTHE AND FARMINGTON.

MOZ001>031-035>038-043-044-053-054-221500-
...NORTHERN AND WESTERN MISSOURI...

CITY           SKY/WX    TMP DP  RH WIND       PRES   REMARKS
KANSAS CTY INT CLOUDY    44  38  79 N15       29.63R
KANSAS C DTWN  CLOUDY    45  42  89 CALM      29.63R
LEE`S SUMMIT   LGT RAIN  44  42  93 N10       29.62R
ST JOSEPH      CLOUDY    37  35  92 N15       29.66R WCI  28
CHILLICOTHE      N/A     40  38  93 N6        29.65R
KIRKSVILLE     CLOUDY    40  39  97 N6        29.63R FOG

$$
MOZ066>068-077>081-088>096-101>105-221500-
...SOUTHWEST MISSOURI...

CITY           SKY/WX    TMP DP  RH WIND       PRES   REMARKS
SPRINGFIELD    LGT RAIN  49  47  93 NE13      29.44R
JOPLIN         RAIN      48  48 100 N13G23    29.46R FOG
BRANSON        FOG       50  50 100 NE5       29.41R VSB 3/4

$$
MOZ032>034-039>042-045>050-055>058-069>072-221500-
...CENTRAL MISSOURI...

CITY           SKY/WX    TMP DP  RH WIND       PRES   REMARKS
COLUMBIA       CLOUDY    45  41  86 N12       29.57R
JEFFERSON CITY CLOUDY    46  43  89 NW10      29.56R
ROLLA          CLOUDY    47  45  93 N10       29.48S
SEDALIA        LGT RAIN  45  43  93 NE7       29.60R FOG
WHITEMAN AFB   LGT RAIN  44  44 100 N9        29.59R
WARRENSBURG    DRIZZLE   43  41  93 N9        29.61R
OSAGE BEACH    CLOUDY    47  45  93 N8G17     29.51S

$$
MOZ051-052-059>065-221500-
...EAST CENTRAL MISSOURI...

CITY           SKY/WX    TMP DP  RH WIND       PRES   REMARKS
ST LOUIS INTL  CLOUDY    48  42  80 N7        29.53S
SPIRIT OF STL  CLOUDY    48  44  86 NE7       29.53S FOG
ST CHARLES     CLOUDY    46  43  89 N15       29.53F FOG

$$
MOZ072>076-082>087-097>100-106>115-221500-
...SOUTH CENTRAL AND SOUTHEAST MISSOURI...

CITY           SKY/WX    TMP DP  RH WIND       PRES   REMARKS
CAPE GIRARDEAU MOCLDY    52  48  86 NE8       29.42F
FARMINGTON     LGT RAIN  51  51 100 N8        29.46F VSB 1/4
POPLAR BLUFF   CLOUDY    53  51  93 NE9       29.39F
WEST PLAINS    CLOUDY    53  52  96 NE7       29.45R

$$



USA.gov is the U.S. government's official web portal to all federal, state and local government web resources and services.